NIMBUS 2 DEB, 25614

Orbit data source: Space-Track

NIMBUS 2 DEB, 25614 is space debris in SSO originally from a launch on Sun, 15 May 1966 UTC launched from the Air Force Western Test Range (AFWTR). Debris objects in space refer to the collection of defunct objects orbiting the Earth. Examples of debris include non-operational satellites, rocket bodies, and fragments generated from explosions, collisions, or faulty payload assembly.

Loading next visibility...
Identifier
25614, 1966-040G
Orbit
SSO
Country
Flag of USUS
Related business
Manufacturer
Unknown
Mission
Spacecraft
Bus & Motor
Unknown
Mass
Unknown
Launch date (UTC)
1966-05-15 (60 years ago)
Launch vehicle
Unknown
Launch site
Air Force Western Test Range (AFWTR)
Object type
Payload
Rocket body
Debris
Shape & HBR
Unknown shape, 0.1 m
Radar Cross Section
Small (<0.1 m²)

Expand to show TLE details & history
Last TLE update: 8 hours ago

TLE from 8 hours ago
0 NIMBUS 2 DEB
1 25614U 66040G   26121.50050154  .00002801  00000-0  36166-2 0  9991
2 25614 100.5155 308.8999 0054161 199.4191 216.9527 13.62797138463499
Epoch: 2026-05-01T12:00Z
TLE epoch observation values (Epoch: 2026-05-01T12:00:43.333Z)
Latitude
54.69796°
Longitude
-105.8296°
Altitude
1,066.59 km
Speed
7.308 km/s
True Right ascension
19h 35m 07s
True Declination
54° 32' 32"
Sunlit
Object was in daylight at epoch
Visualization orbit readout
Latitude
Unknown
Longitude
Unknown
Altitude
Unknown
Speed
Unknown
Apparent Right ascension
Unknown
Apparent Declination
Unknown
Sunlit
N/A
Visualization observer readout
Local Sidereal Time
03:49:27
Azimuth
Unknown
Elevation
Unknown
Doppler factor
Unknown
Orbital elements
Apogee altitude
1,062.957 km
Perigee altitude
982.787 km
Semi-major axis
7,401.009 km
Eccentricity
0.00542
Inclination
100.5155°
RAAN
308.8999°
Arg. of periapsis
199.4191°
True anomaly
216.58161°
Mean anomaly
216.9527°
Eccentric anomaly
216.76695°
Mean motion
3.40884 °/min
Orbital period
105.61 mins
BSTAR
0.0036166
Loading maneuver chart data...
Computing Atmospheric mass density...
Loading historical data...
Loading historical data...
Loading historical data...
Loading historical data...
Loading historical data...
Loading historical data...
Loading historical data...

Documentation

Showing up to 5 results
|